Weather History for Hot Springs, VA

Change the Weather History Date:

Sunday, December 31, 2006

  Actual Average Record
Temperature  
Mean Temperature 44 °F -  
Max Temperature 48 °F 33 °F 55 °F (2002)
Min Temperature 39 °F 20 °F 6 °F (2000)
Degree Days  
Heating Degree Days 22    
Moisture  
Dew Point 43 °F    
Average Humidity 98    
Maximum Humidity 100    
Minimum Humidity 87    
Precipitation  
Precipitation 0.28 in - - ()
Sea Level Pressure  
Sea Level Pressure 30.27 in    
Wind  
Wind Speed 8 mph (SE)    
Max Wind Speed 17 mph    
Max Gust Speed 24 mph    
Visibility 5 miles    
Events Rain    
Averages and records for this station are not official NWS values.
T = Trace of Precipitation, MM = Missing Value Source: NWS Daily Summary

Daily Weather History Graph

Daily Weather History Graph

Search for Another Location

Airport:

Trip Planner

Search our weather history database for the weather conditions in past years. The results will help you decide how hot, cold, wet, or windy it might be!

Date:

Astronomy

Dec. 31, 2006 Rise Set
Actual Time 7:35 AM EST 5:09 PM EST
Civil Twilight 7:05 AM EST 5:39 PM EST
Nautical Twilight 6:32 AM EST 6:12 PM EST
Astronomical Twilight 6:00 AM EST 6:44 PM EST
Moon 2:17 PM EST (12/31) 4:46 AM EST (12/31)
Length of Visible Light 10h 33m
Length of Day
9h 34m
Waxing Gibbous, 90% of the Moon is Illuminated
Dec 31
Waxing Gibbous
Jan 3
Full
Jan 11
Last Quarter
Jan 18
New
Jan 25
First Quarter

Hourly Weather History & Observations

Time (EST) Temp. Windchill Dew Point Humidity Pressure Visibility Wind Dir Wind Speed Gust Speed Precip Events Conditions
12:00 AM 46.4 °F 44.3 °F 44.6 °F 93% 30.41 in 10.0 mi South 4.6 mph - N/A   Clear
12:20 AM 46.4 °F 43.5 °F 44.6 °F 93% 30.41 in 10.0 mi South 5.8 mph - N/A   Clear
12:40 AM 46.4 °F 42.9 °F 44.6 °F 93% 30.40 in 10.0 mi South 6.9 mph - N/A   Scattered Clouds
1:00 AM 46.4 °F 43.5 °F 44.6 °F 93% 30.40 in 10.0 mi SSE 5.8 mph - N/A   Mostly Cloudy
1:20 AM 46.4 °F 43.5 °F 44.6 °F 93% 30.40 in 10.0 mi SSE 5.8 mph - N/A   Overcast
1:40 AM 46.4 °F 43.5 °F 44.6 °F 93% 30.40 in 10.0 mi SSE 5.8 mph - N/A   Overcast
2:00 AM 48.2 °F - 44.6 °F 87% 30.39 in 10.0 mi SSE 6.9 mph - N/A   Overcast
2:20 AM 46.4 °F 42.9 °F 44.6 °F 93% 30.39 in 10.0 mi SSE 6.9 mph - N/A   Overcast
3:00 AM 48.2 °F - 44.6 °F 87% 30.39 in 10.0 mi SSE 6.9 mph - N/A   Overcast
3:20 AM 48.2 °F - 44.6 °F 87% 30.38 in 10.0 mi SE 8.1 mph - N/A   Overcast
3:40 AM 46.4 °F 43.5 °F 44.6 °F 93% 30.38 in 10.0 mi ESE 5.8 mph - N/A   Overcast
4:00 AM 46.4 °F 42.9 °F 44.6 °F 93% 30.37 in 10.0 mi East 6.9 mph - N/A   Overcast
4:20 AM 44.6 °F 41.4 °F 42.8 °F 93% 30.36 in 10.0 mi East 5.8 mph - N/A   Overcast
4:40 AM 44.6 °F 41.4 °F 42.8 °F 93% 30.37 in 10.0 mi ESE 5.8 mph - N/A   Overcast
5:00 AM 46.4 °F 42.9 °F 44.6 °F 93% 30.36 in 10.0 mi ESE 6.9 mph - N/A   Overcast
5:20 AM 44.6 °F 40.7 °F 42.8 °F 93% 30.36 in 10.0 mi ESE 6.9 mph - N/A   Overcast
6:00 AM 44.6 °F 40.2 °F 44.6 °F 100% 30.36 in 3.0 mi SE 8.1 mph - N/A   Drizzle
6:20 AM 44.6 °F 39.7 °F 44.6 °F 100% 30.34 in 10.0 mi ESE 9.2 mph - N/A   Overcast
7:00 AM 42.8 °F 38.0 °F 42.8 °F 100% 30.35 in 10.0 mi ESE 8.1 mph - N/A   Overcast
7:20 AM 42.8 °F 38.0 °F 42.8 °F 100% 30.35 in 10.0 mi ESE 8.1 mph - N/A   Overcast
7:40 AM 42.8 °F 37.0 °F 42.8 °F 100% 30.35 in 10.0 mi SE 10.4 mph - N/A   Overcast
8:00 AM 42.8 °F 37.0 °F 42.8 °F 100% 30.35 in 10.0 mi SE 10.4 mph - N/A   Overcast
8:20 AM 42.8 °F 36.6 °F 42.8 °F 100% 30.36 in 10.0 mi SE 11.5 mph - N/A   Overcast
8:40 AM 42.8 °F 37.0 °F 42.8 °F 100% 30.36 in 10.0 mi SE 10.4 mph - N/A   Overcast
9:00 AM 42.8 °F 36.6 °F 42.8 °F 100% 30.35 in 10.0 mi SE 11.5 mph - N/A   Overcast
9:20 AM 42.8 °F 37.5 °F 42.8 °F 100% 30.37 in 10.0 mi SE 9.2 mph - N/A   Overcast
10:00 AM 42.8 °F 38.6 °F 42.8 °F 100% 30.39 in 10.0 mi SE 6.9 mph - N/A   Overcast
10:20 AM 42.8 °F 37.0 °F 42.8 °F 100% 30.37 in 10.0 mi ESE 10.4 mph - N/A   Overcast
10:40 AM 42.8 °F 37.0 °F 42.8 °F 100% 30.36 in 7.0 mi SE 10.4 mph - N/A   Overcast
11:20 AM 42.8 °F 37.5 °F 42.8 °F 100% 30.34 in 10.0 mi SE 9.2 mph - N/A   Overcast
11:40 AM 42.8 °F 38.0 °F 42.8 °F 100% 30.32 in 5.0 mi SE 8.1 mph - N/A   Overcast
12:00 PM 42.8 °F 38.0 °F 42.8 °F 100% 30.30 in 5.0 mi ESE 8.1 mph - N/A   Overcast
12:20 PM 42.8 °F 38.6 °F 42.8 °F 100% 30.28 in 10.0 mi ESE 6.9 mph - N/A   Overcast
12:40 PM 42.8 °F 38.0 °F 42.8 °F 100% 30.28 in 10.0 mi ESE 8.1 mph - N/A   Overcast
1:00 PM 42.8 °F 38.6 °F 42.8 °F 100% 30.27 in 7.0 mi ESE 6.9 mph - N/A   Overcast
1:20 PM 42.8 °F 38.6 °F 42.8 °F 100% 30.27 in 2.5 mi ESE 6.9 mph - N/A   Overcast
1:40 PM 42.8 °F 37.5 °F 42.8 °F 100% 30.26 in 0.2 mi ESE 9.2 mph - N/A   Drizzle
2:00 PM 42.8 °F 38.0 °F 42.8 °F 100% 30.26 in 0.2 mi East 8.1 mph - N/A Rain Light Rain
2:20 PM 41.0 °F 35.2 °F 41.0 °F 100% 30.26 in 0.2 mi ESE 9.2 mph - N/A Rain Light Rain
2:40 PM 41.0 °F 34.7 °F 41.0 °F 100% 30.24 in 0.2 mi East 10.4 mph - N/A Rain Light Rain
3:00 PM 42.8 °F 37.0 °F 42.8 °F 100% 30.23 in 0.2 mi SE 10.4 mph - 0.01 in Rain Light Rain
3:20 PM 41.0 °F 35.8 °F 41.0 °F 100% 30.23 in 0.2 mi SE 8.1 mph - 0.01 in Rain Light Rain
3:40 PM 42.8 °F 37.5 °F 42.8 °F 100% 30.21 in 0.2 mi ESE 9.2 mph - 0.01 in   Unknown
4:00 PM 42.8 °F 38.6 °F 42.8 °F 100% 30.21 in 0.2 mi SE 6.9 mph - N/A   Unknown
4:20 PM 42.8 °F 38.0 °F 42.8 °F 100% 30.20 in 0.2 mi ESE 8.1 mph - N/A   Unknown
4:40 PM 44.6 °F 40.2 °F 44.6 °F 100% 30.20 in 0.2 mi SSE 8.1 mph - N/A   Unknown
5:00 PM 42.8 °F 38.0 °F 42.8 °F 100% 30.19 in 0.2 mi SE 8.1 mph - 0.01 in Rain Light Rain
5:20 PM 42.8 °F 38.0 °F 42.8 °F 100% 30.20 in 0.2 mi SSE 8.1 mph - 0.01 in Rain Rain
5:40 PM 42.8 °F 38.0 °F 42.8 °F 100% 30.20 in 0.2 mi SE 8.1 mph - 0.02 in   Drizzle
6:00 PM 42.8 °F 36.2 °F 42.8 °F 100% 30.18 in 0.2 mi SE 12.7 mph - 0.01 in Rain Light Rain
6:20 PM 42.8 °F 36.6 °F 42.8 °F 100% 30.18 in 0.2 mi SSE 11.5 mph - 0.02 in Rain Light Rain
7:20 PM 41.0 °F 33.5 °F 41.0 °F 100% 30.14 in 0.2 mi SE 13.8 mph 18.4 mph 0.01 in Rain Rain
7:40 PM 41.0 °F 34.7 °F 41.0 °F 100% 30.14 in 0.2 mi SE 10.4 mph - 0.02 in Rain Light Rain
8:00 PM 41.0 °F 35.8 °F 41.0 °F 100% 30.14 in 0.2 mi SE 8.1 mph - 0.02 in Rain Rain
8:20 PM 39.2 °F 32.5 °F 39.2 °F 100% 30.11 in 0.2 mi ESE 10.4 mph - 0.04 in Rain Rain
9:00 PM 39.2 °F 32.0 °F - N/A% 30.10 in 0.2 mi ESE 11.5 mph - 0.01 in Rain Rain
9:20 PM 41.0 °F 34.7 °F - N/A% 30.10 in 0.2 mi SE 10.4 mph 17.3 mph 0.06 in Rain Light Rain
9:40 PM 42.8 °F 35.8 °F - N/A% 30.08 in 0.2 mi SSE 13.8 mph 19.6 mph 0.07 in Rain Rain
10:00 PM 42.8 °F 36.2 °F - N/A% 30.08 in 0.2 mi SSE 12.7 mph 19.6 mph N/A Rain Light Rain
10:20 PM 42.8 °F 34.8 °F - N/A% 30.07 in 0.2 mi SSE 17.3 mph 23.0 mph 0.01 in Rain Rain
10:40 PM 44.6 °F 38.4 °F - N/A% 30.06 in 0.2 mi SSE 12.7 mph 21.9 mph 0.01 in Rain Heavy Rain
11:00 PM 44.6 °F 37.2 °F - N/A% 30.05 in 0.2 mi SSE 17.3 mph 23.0 mph 0.01 in Rain Heavy Rain
11:20 PM 44.6 °F 37.8 °F - N/A% 30.05 in 0.2 mi South 15.0 mph 19.6 mph 0.04 in Rain Rain
11:40 PM 46.4 °F 39.8 °F - N/A% 30.03 in 0.2 mi South 16.1 mph 24.2 mph 0.09 in Rain Rain